Weather History for Milwaukee, WI

Change the Weather History Date:

Tuesday, April 30, 2013

  Actual Average Record
Temperature  
Mean Temperature 68 °F 51 °F  
Max Temperature 85 °F 59 °F 85 °F (2013)
Min Temperature 50 °F 42 °F 29 °F (1969)
Degree Days  
Heating Degree Days 0 15  
Month to date heating degree days 641 589  
Since 1 July heating degree days 6441 6497  
Cooling Degree Days 3 0  
Month to date cooling degree days 3 5  
Year to date cooling degree days 3 5  
Growing Degree Days 17 (Base 50)    
Moisture  
Dew Point 54 °F    
Average Humidity 62    
Maximum Humidity 89    
Minimum Humidity 34    
Precipitation  
Precipitation 0.00 in 0.12 in 1.26 in (1917)
Month to date precipitation 7.38 3.56  
Year to date precipitation 15.21 9.24  
Snow  
Snow 0.00 in 0.00 in 5.00 in (1907)
Month to date snowfall 0.4 2.0  
Since 1 July snowfall 45.0 46.8  
Snow Depth 0.00 in    
Sea Level Pressure  
Sea Level Pressure 29.78 in    
Wind  
Wind Speed 14 mph (South)    
Max Wind Speed 28 mph    
Max Gust Speed 36 mph    
Visibility 10 miles    
Events      
T = Trace of Precipitation, MM = Missing Value Source: NWS Daily Summary

Daily Weather History Graph

Daily Weather History Graph

Search for Another Location

Airport:

Trip Planner

Search our weather history database for the weather conditions in past years. The results will help you decide how hot, cold, wet, or windy it might be!

Date:

Astronomy

Apr. 30, 2013 Rise Set
Actual Time 5:46 AM CDT 7:51 PM CDT
Civil Twilight 5:15 AM CDT 8:22 PM CDT
Nautical Twilight 4:37 AM CDT 9:00 PM CDT
Astronomical Twilight 3:56 AM CDT 9:42 PM CDT
Moon 12:16 AM CDT 10:13 AM CDT
Length of Visible Light 15h 07m
Length of Day
14h 05m
Waning Gibbous, 70% of the Moon is Illuminated
Apr 30
Waning Gibbous
May 2
Last Quarter
May 9
New
May 17
First Quarter
May 24
Full

Hourly Weather History & Observations

Time (CDT) Temp. Heat Index Dew Point Humidity Pressure Visibility Wind Dir Wind Speed Gust Speed Precip Events Conditions
12:52 AM 51.1 °F - 46.9 °F 86% 29.77 in 9.0 mi SE 5.8 mph - N/A   Mostly Cloudy
1:52 AM 52.0 °F - 48.0 °F 86% 29.76 in 10.0 mi SSE 9.2 mph - N/A   Partly Cloudy
2:52 AM 50.0 °F - 46.0 °F 86% 29.75 in 6.0 mi SSE 8.1 mph - N/A   Clear
3:52 AM 53.1 °F - 48.9 °F 86% 29.75 in 7.0 mi South 10.4 mph - N/A   Scattered Clouds
4:52 AM 57.9 °F - 52.0 °F 81% 29.75 in 10.0 mi South 10.4 mph - N/A   Mostly Cloudy
5:52 AM 62.1 °F - 55.0 °F 78% 29.75 in 10.0 mi SW 13.8 mph - N/A   Mostly Cloudy
6:52 AM 63.0 °F - 55.9 °F 78% 29.78 in 10.0 mi SW 12.7 mph - N/A   Overcast
7:52 AM 63.0 °F - 57.0 °F 81% 29.75 in 10.0 mi South 11.5 mph - N/A   Mostly Cloudy
8:52 AM 66.0 °F - 57.9 °F 75% 29.76 in 10.0 mi South 16.1 mph 24.2 mph N/A   Mostly Cloudy
9:52 AM 70.0 °F - 59.0 °F 68% 29.76 in 10.0 mi SSW 17.3 mph 23.0 mph N/A   Mostly Cloudy
10:52 AM 73.9 °F - 60.1 °F 62% 29.76 in 10.0 mi SSW 16.1 mph - N/A   Mostly Cloudy
11:52 AM 75.9 °F - 57.9 °F 54% 29.76 in 10.0 mi SW 18.4 mph 26.5 mph N/A   Mostly Cloudy
12:52 PM 80.1 °F 80.4 °F 57.0 °F 45% 29.76 in 10.0 mi SSW 19.6 mph 26.5 mph N/A   Mostly Cloudy
1:52 PM 82.4 °F 81.7 °F 55.4 °F 39% 29.76 in 10.0 mi SSW 20.7 mph 31.1 mph N/A   Mostly Cloudy
2:52 PM 84.0 °F 83.5 °F 57.9 °F 41% 29.74 in 10.0 mi SSW 21.9 mph 28.8 mph N/A   Mostly Cloudy
3:52 PM 84.9 °F 83.2 °F 53.1 °F 33% 29.75 in 10.0 mi SSW 23.0 mph 35.7 mph N/A   Mostly Cloudy
4:52 PM 84.0 °F 82.5 °F 53.1 °F 34% 29.75 in 10.0 mi SSW 19.6 mph 28.8 mph N/A   Mostly Cloudy
5:52 PM 82.9 °F 81.8 °F 53.1 °F 36% 29.77 in 10.0 mi South 18.4 mph 25.3 mph N/A   Mostly Cloudy
6:52 PM 81.0 °F 80.4 °F 53.1 °F 38% 29.80 in 10.0 mi SSW 15.0 mph 25.3 mph N/A   Mostly Cloudy
7:52 PM 79.0 °F - 54.0 °F 42% 29.82 in 10.0 mi South 10.4 mph - N/A   Mostly Cloudy
8:52 PM 77.0 °F - 55.9 °F 48% 29.85 in 10.0 mi South 9.2 mph - N/A   Mostly Cloudy
9:52 PM 75.9 °F - 55.0 °F 48% 29.86 in 10.0 mi South 11.5 mph - N/A   Scattered Clouds
10:52 PM 73.9 °F - 57.0 °F 55% 29.88 in 10.0 mi South 11.5 mph - N/A   Scattered Clouds
11:52 PM 72.0 °F - 57.0 °F 59% 29.90 in 10.0 mi South 12.7 mph - N/A   Partly Cloudy